Satellite: NOAA-19
Catalog number: 33591
Epoch time:      10223.73830147
Element set:    0636
Inclination:      098.7898 deg
RA of node:       164.6837 deg
Eccentricity:    0.0014836
Arg of perigee:   129.4343 deg
Mean anomaly:     230.8125 deg
Mean motion:   14.11075876 rev/day
Decay rate:       2.91e-06 rev/day^2
Epoch rev:           07774
Checksum:              327

/EX
SB KEPS @ AMSAT  $ORB10224.M
Orbital Elements  10224.MISC

HR AMSAT ORBITAL ELEMENTS FOR MANNED AND MISCELLANEOUS SATELLITES
FROM WA5QGD FORT WORTH,TX August 12, 2010
Send Subscribe/unsubscribe to KEPS at http://www.amsat.org/mailman/listinfo/kep
BID: ORB10224.M
TO ALL RADIO AMATEURS BT

Satellite: HUBBLE
Catalog number: 20580
Epoch time:      10223.16905948
Element set:     625
Inclination:      028.4692 deg
RA of node:       240.9217 deg
Eccentricity:    0.0003329
Arg of perigee:   071.6612 deg
Mean anomaly:     288.4341 deg
Mean motion:   15.01013541 rev/day
Decay rate:       5.24e-06 rev/day^2
Epoch rev:           91302
Checksum:              260

Satellite: ISS
Catalog number: 25544
Epoch time:      10225.02010417
Element set:     696
Inclination:      051.6476 deg
RA of node:       299.7730 deg
Eccentricity:    0.0006444
Arg of perigee:   215.8269 deg
Mean anomaly:     153.3787 deg
Mean motion:   15.71754969 rev/day
Decay rate:     1.4034e-04 rev/day^2
Epoch rev:           67241
Checksum:              310

Satellite: CO-58
Catalog number: 28895
Epoch time:      10223.70311294
Element set:    0655
Inclination:      098.0073 deg
RA of node:       106.3205 deg
Eccentricity:    0.0018990
Arg of perigee:   109.9426 deg
Mean anomaly:     250.3848 deg
Mean motion:   14.59919241 rev/day
Decay rate:       2.22e-06 rev/day^2
Epoch rev:           25508
Checksum:              309

Satellite: FALCON
Catalog number: 30776
Epoch time:      10224.71765493
Element set:     890
Inclination:      035.4336 deg
RA of node:       061.0626 deg
Eccentricity:    0.0002017
Arg of perigee:   310.3431 deg
Mean anomaly:     049.7107 deg
Mean motion:   15.03759662 rev/day
Decay rate:       9.40e-06 rev/day^2
Epoch rev:           18857
Checksum:              284

Satellite: MAST
Catalog number: 31126
Epoch time:      10223.63473047
Element set:    0937
Inclination:      097.9331 deg
RA of node:       262.7688 deg
Eccentricity:    0.0095781
Arg of perigee:   054.2605 deg
Mean anomaly:     306.7435 deg
Mean motion:   14.53610204 rev/day
Decay rate:       2.94e-06 rev/day^2
Epoch rev:           17611
Checksum:              291

Satellite: CAPE1
Catalog number: 31130
Epoch time:      10224.08448448
Element set:     956
Inclination:      097.9387 deg
RA of node:       260.4955 deg
Eccentricity:    0.0103850
Arg of perigee:   061.0035 deg
Mean anomaly:     300.1530 deg
Mean motion:   14.52209208 rev/day
Decay rate:       3.31e-06 rev/day^2
Epoch rev:           17577
Checksum:              272

Satellite: COMPASS
Catalog number: 32787
Epoch time:      10223.19894539
Element set:    0747
Inclination:      097.8911 deg
RA of node:       287.1901 deg
Eccentricity:    0.0016915
Arg of perigee:   105.4219 deg
Mean anomaly:     254.8861 deg
Mean motion:   14.81931403 rev/day
Decay rate:       2.67e-06 rev/day^2
Epoch rev:           12364
Checksum:              316

Satellite: AAUSAT2
Catalog number: 32788
Epoch time:      10223.12912983
Element set:    0741
Inclination:      097.8920 deg
RA of node:       287.2623 deg
Eccentricity:    0.0016711
Arg of perigee:   105.5452 deg
Mean anomaly:     254.7649 deg
Mean motion:   14.82075586 rev/day
Decay rate:        4.2e-07 rev/day^2
Epoch rev:           12364
Checksum:              303

Satellite: DO-64
Catalog number: 32789
Epoch time:      10223.87481527
Element set:    0760
Inclination:      097.8983 deg
RA of node:       288.5337 deg
Eccentricity:    0.0016775
Arg of perigee:   101.9130 deg
Mean anomaly:     258.3964 deg
Mean motion:   14.82249335 rev/day
Decay rate:       6.49e-06 rev/day^2
Epoch rev:           12375
Checksum:              348

Satellite: CO-66
Catalog number: 32791
Epoch time:      10223.22902863
Element set:    0741
Inclination:      097.8925 deg
RA of node:       287.2283 deg
Eccentricity:    0.0017232
Arg of perigee:   103.3434 deg
Mean anomaly:     256.9670 deg
Mean motion:   14.81709581 rev/day
Decay rate:       4.92e-06 rev/day^2
Epoch rev:           12360
Checksum:              307

Satellite: RS-30
Catalog number: 32953
Epoch time:      10224.47181116
Element set:     946
Inclination:      082.5037 deg
RA of node:       354.6735 deg
Eccentricity:    0.0018392
Arg of perigee:   343.1343 deg
Mean anomaly:     016.9123 deg
Mean motion:   12.43007188 rev/day
Decay rate:        1.0e-07 rev/day^2
Epoch rev:           10073
Checksum:              263

Satellite: TACSAT-3
Catalog number: 35001
Epoch time:      10223.48319329
Element set:    0371
Inclination:      040.4548 deg
RA of node:       241.8410 deg
Eccentricity:    0.0020749
Arg of perigee:   056.5261 deg
Mean anomaly:     303.7534 deg
Mean motion:   15.42271497 rev/day
Decay rate:      4.734e-05 rev/day^2
Epoch rev:           06917
Checksum:              279

